Other Public Products
Issued by NWS Grand Forks, ND

Home | Current Version | Previous Version | Text Only | Print | Product List | Glossary Off
Versions: 1 2 3 4 5 6 7 8 9 10 11 12 13 14 15 16 17 18 19 20 21 22 23 24 25 26 27 28 29 30 31 32 33 34 35 36 37 38 39 40 41 42 43 44 45 46 47 48 49 50

000
FPUS83 KFGF 210731
OPUFGF
PRAIRIE TO PINES WEATHER ROUNDUP
NATIONAL WEATHER SERVICE EASTERN NORTH DAKOTA/GRAND FORKS ND
100 AM CST SAT JAN 21 2017

 **SATELLITE DATA USED TO AUGMENT SKY COVER AT AUTOMATED STATIONS**
 *****  WEATHER ACROSS EASTERN NORTH DAKOTA  *****

CITY           SKY/WX    TMP DP  RH WIND       PRES   REMARKS
GRAND FORKS    CLOUDY    36  32  85 SE10      29.42F
GRAND FORKS AF CLOUDY    34  34 100 SE13      29.41F WCI  25
GRAND CITY NWS NOT AVBL
BUXTON           N/A     34  34  99 SE8         N/A
DEVILS LAKE    LGT RAIN  34  32  93 SE9       29.36F VSB 1/4
FARGO          CLOUDY    39  35  86 SE13      29.42S
WAHPETON ARPT  CLOUDY    34  32  93 SE10      29.43S
$$

 *****  WEATHER ACROSS CENTRAL AND WESTERN NORTH DAKOTA  *****

CITY           SKY/WX    TMP DP  RH WIND       PRES   REMARKS
JAMESTOWN      FOG       33  33 100 SE10      29.33F VSB 1/2 WCI  25
BISMARCK       CLOUDY    32  30  92 NW5       29.32F FOG
MINOT          CLOUDY    29  28  96 SW5       29.31F FOG     WCI  24
MINOT AFB      FOG       27  25  93 CALM      29.31F VSB 3/4
GARRISON         N/A     24  21  88 CALM      29.31F
WILLISTON      CLOUDY    20  19  96 CALM      29.31F
DICKINSON      CLOUDY    28  25  88 NW9       29.27F WCI  19
HETTINGER      CLOUDY    26  23  88 NW12      29.30F WCI  16
$$

 *****  OTHER OBSERVATIONS NORTHEAST NORTH DAKOTA  *****

CITY           SKY/WX    TMP DP  RH WIND       PRES   REMARKS
WALHALLA       NOT AVBL
LANGDON        NOT AVBL
CAVALIER       CLOUDY    34  34 100 S8        29.42F FOG
GRAFTON          N/A     34  34 100 SE12      29.45S
CANDO          NOT AVBL
FORT TOTTEN      N/A     33  33 100 SE6       29.95S
ROLLA            N/A    N/A N/A N/A MISG        N/A
RUGBY            N/A     32  32 100 SE9       29.33F FOG     WCI  24
 ***** THE ABOVE OBSERVATIONS ARE NON NWS ARE NOT QUALITY
        CONTROLLED AND MAY MIS-REPORT RAIN FOR SNOW...
$$

 *****  OTHER OBSERVATIONS SOUTHEAST NORTH DAKOTA *****

CITY           SKY/WX    TMP DP  RH WIND       PRES   REMARKS
COOPERSTOWN    FOG       34  34 100 SE12      29.38F VSB 1/4
VALLEY CITY    FOG       32  32 100 SE8       29.39S VSB<1/4 WCI  25
OAKES          NOT AVBL
GWINNER        CLOUDY    34  34 100 SE10      29.37F VSB 1
SHEYENNE NWR     N/A     34  34 100 SE5       29.95S
BUFFALO          N/A     33  32  96 NE10        N/A  WCI  25
WYNDMERE         N/A     34  34 100 SE10        N/A
 ***** THE ABOVE OBSERVATIONS ARE NON NWS ARE NOT QUALITY
       CONTROLLED AND MAY MIS-REPORT RAIN FOR SNOW...
$$

  *****  WEATHER ACROSS NORTHERN MINNESOTA  *****

CITY           SKY/WX    TMP DP  RH WIND       PRES   REMARKS
FLAG ISLAND    CLOUDY    34  32  93 SE6       29.49S
WARROAD        CLOUDY    36  30  80 SE9       29.48F
ROSEAU         CLOUDY    36  30  80 SE7       29.47S
HALLOCK        CLOUDY    36  34  93 SE10      29.44S
THF RVR FALLS  CLOUDY    35  33  92 SE15      29.45F
HALSTAD          N/A     34  32  92 SE13        N/A
FOSSTON        CLOUDY    34  32  93 SE12      29.45F
BAUDETTE       CLOUDY    34  33  96 SE7       29.49F FOG
WASKISH        CLOUDY    36  34  93 SE8       29.50S
CROOKSTON      CLOUDY    36  34  93 SE10      29.44F
$$
  *****  WEATHER ACROSS CENTRAL AND WEST MINNESOTA  *****

CITY           SKY/WX    TMP DP  RH WIND       PRES   REMARKS
BEMIDJI        CLOUDY    33  33 100 SE9       29.48F FOG
PARK RAPIDS    CLOUDY    34  32  92 SE8       29.47F
WADENA         CLOUDY    34  34 100 E6        29.46F FOG
DETROIT LAKES  CLOUDY    34  34 100 SE13      29.44F FOG     WCI  25
MOORHEAD       CLOUDY    34  34 100 SE6       29.43S
FERGUS FALLS   CLOUDY    36  36 100 SE12      29.47F
ELBOW LAKE     CLOUDY    33  33 100 SE9       29.44S FOG
MORRIS MN      CLOUDY    34  34 100 SE10      29.43S FOG
STAPLES        CLOUDY    34  34 100 CALM      29.47F
WHEATON        CLOUDY    41  41 100 SE13      29.44S FOG
$$
  *****  WEATHER ELSEWHERE ACROSS MINNESOTA  *****

CITY           SKY/WX    TMP DP  RH WIND       PRES   REMARKS
DULUTH         DRZL/FOG  34  34 100 SE8       29.54F VSB 1/4
INTRNTL FALLS  LGT SNOW  33  31  92 SE8       29.53S FOG
ELY            CLOUDY    32  32 100 CALM      29.55F
CLOQUET        FOG       34  34 100 E5        29.53F VSB 1/4
BRAINERD       CLOUDY    34  34 100 E3        29.50F FOG
HIBBING        CLOUDY    32  32 100 SE6       29.53F FOG
ALEXANDRIA     CLOUDY    33  33 100 SE10      29.46S FOG     WCI  25
SAINT CLOUD    FOG       34  34 100 E5        29.49F VSB 1/2
MINNEAPOLIS    CLOUDY    35  33  92 SE8       29.52F FOG
$$

  *****  WEATHER ACROSS SOUTH DAKOTA  *****

CITY           SKY/WX    TMP DP  RH WIND       PRES   REMARKS
SIOUX FALLS    CLOUDY    37  37 100 SE8       29.37F FOG
BROOKINGS      MIX PCPN  36  34  93 SE10      29.36F VSB 3/4
WATERTOWN      FOG       34  34 100 SE10      29.36F VSB 1/4
HURON          FOG       37  37 100 S6        29.33F VSB 3/4
SISSETON         N/A     34  34 100 SE9       29.39F
ABERDEEN       CLOUDY    30  28  92 CALM      29.35S FOG
MITCHELL       CLOUDY    38  38 100 S8        29.35F FOG
PIERRE         CLOUDY    25  23  92 W10       29.33S FOG     WCI  15
MOBRIDGE       FOG       24  20  84 SE6       29.29S VSB 1   WCI  17
RAPID CITY     CLOUDY    34  31  88 N18       29.35S WCI  23
$$

  *****  SOME WEATHER IN NEARBY STATES *****

CITY           SKY/WX    TMP DP  RH WIND       PRES   REMARKS
GLASGOW MT     FAIR      23  23 100 NW7       29.33F WCI  15
GREAT FALLS MT FAIR      24  16  71 SW9       29.32S WCI  14
CHEYENNE WY    FAIR      24  14  65 SW8       29.41S WCI  15
SCOTTSBLUFF NE FAIR      28  23  81 N7        29.40F WCI  21
OMAHA NE       DRZL/FOG  41  37  86 CALM      29.39F VSB 1
DES MOINES IA  LGT RAIN  42  42 100 SE7       29.40F VSB 3/4
DAVENPORT IA   LGT RAIN  41  40  96 E10       29.50F VSB 1/2
CHICAGO IL     CLOUDY    43  43 100 SE8       29.58F FOG
EAU CLAIRE WI  CLOUDY    34  34 100 E7        29.54F FOG
LA CROSSE WI   CLOUDY    39  35  86 SE6       29.55F FOG
$$

  *****  SOME NATIONAL WEATHER *****

CITY           SKY/WX    TMP DP  RH WIND       PRES   REMARKS
LA GUARDIA NY  CLOUDY    44  39  82 SW10      29.92S
RALEIGH NC     FOG       52  52 100 E5        29.91F VSB 1/8
ATLANTA GA     FOG       63  63 100 SW5       29.87R VSB 1
NEW ORLEANS LA CLOUDY    71  71 100 S13       29.70F FOG
OKLAHOMA CITY  FAIR      47  32  56 SW8       29.57R
ALBUQUERQUE NM LGT RAIN  37  35  92 E7        29.55F
SALT LAKE CITY CLOUDY    35  31  85 SE9       29.29F
LOS ANGELES CA MOCLDY    54  44  69 W24G33    29.59R
BOISE ID       MOCLDY    35  30  82 SE12      29.27S
SEATTLE WA     CLOUDY    44  39  82 SE5       29.19R
$$

*** WEATHER ACROSS MANITOBA...SASKATCHEWAN AND ONTARIO ***
                ***ONTARIO***

CITY           SKY/WX    TMP DP  RH WIND       PRES   REMARKS
GERALDTON      FOG       32  32 100 S2        29.66R VSB 0
THUNDER BAY    LGT RAIN  34  34 100 NE7       29.63F FOG
SIOUX LOOKOUT  LGT RAIN  36  34  93 SE5       29.58R
TORONTO        MOCLDY    37  36  93 NW3       29.76S FOG
BIG TROUT LK   FLURRIES  27  25  93 E7        29.69F WCI  19
PICKLE LAKE    NOT AVBL
DRYDEN         LGT RAIN  36  36 100 SE9       29.54S
KENORA         SNOW      32  32 100 SE7       29.51  VSB 1/2
$$
                *** MANITOBA***

CITY           SKY/WX    TMP DP  RH WIND       PRES   REMARKS
BRANDON        FOG       32  32 100 SE7       29.36F VSB 1/2
DAUPHIN        FRZ RAIN  27  23  86 CALM      29.39F FOG
ISLAND LAKE    CLOUDY    32  32 100 E5        29.58R FOG
PILOT MOUND      N/A     32  32 100 SE14        N/A  WCI  22
THE PAS        CLOUDY    27  23  86 E7        29.42F FOG     WCI  19
THOMPSON       CLOUDY    27  25  93 E3        29.57R FOG
WINNIPEG       CLOUDY    34  34 100 SE8       29.45S
LYNN LAKE      CLOUDY    27  27 100 SE10      29.50S FOG     WCI  17
CHURCHILL      FLURRIES  19  18  93 E18       29.81R WCI   4
GILLAM         FLURRIES  28  27  93 E5        29.66S WCI  23
$$
                ***SASKATCHEWAN***

CITY           SKY/WX    TMP DP  RH WIND       PRES   REMARKS
ESTEVAN        FOG       12  10  92 E5        29.31S VSB 1/8 WCI   4
KINDERSLEY     PTCLDY    21  21 100 NE8       29.32S WCI  12
LLOYDMINSTER   SNOW      23  23 100 NW7       29.37S VSB 3/8 WCI  15
PRINCE ALBERT  CLOUDY    27  25  93 NE5       29.34S WCI  21
REGINA         PTCLDY    19  18  93 SE5       29.29S WCI  13
YORKTON        CLOUDY    25  23  93 SE10      29.31F WCC1F1C2F2C3F3C4F4C5F5C6F6C7F7C8F8C9F9CaFaCbFbCcFcCdFdCe!



USA.gov is the U.S. government's official web portal to all federal, state and local government web resources and services.